Time,TemperatureF,DewpointF,PressureIn,WindDirection,WindDirectionDegrees,WindSpeedMPH,WindSpeedGustMPH,Humidity,HourlyPrecipIn,Conditions,Clouds,dailyrainin,SoftwareType,DateUTC
2013-02-04 00:00:00,37.5,31.3,30.13,North,0,0.0,0.0,78,0.00,,---,0.00,VWS V13.00,2013-02-04 06:00:00,
2013-02-04 00:15:00,37.1,31.5,30.12,North,0,0.0,0.0,80,0.00,,---,0.00,VWS V13.00,2013-02-04 06:15:00,
2013-02-04 00:30:00,36.3,31.3,30.11,North,0,0.0,0.0,82,0.00,,---,0.00,VWS V13.00,2013-02-04 06:30:00,
2013-02-04 00:45:00,35.8,30.9,30.12,North,0,0.0,0.0,82,0.00,,---,0.00,VWS V13.00,2013-02-04 06:45:00,
2013-02-04 01:00:00,35.8,31.5,30.11,North,0,0.0,0.0,84,0.00,,---,0.00,VWS V13.00,2013-02-04 07:00:00,
2013-02-04 01:15:00,35.7,31.0,30.10,North,0,0.0,0.0,83,0.00,,---,0.00,VWS V13.00,2013-02-04 07:15:00,
2013-02-04 01:30:00,34.9,30.9,30.10,North,0,0.0,0.0,85,0.00,,---,0.00,VWS V13.00,2013-02-04 07:30:00,
2013-02-04 01:45:00,34.3,30.6,30.09,North,0,0.0,0.0,86,0.00,,---,0.00,VWS V13.00,2013-02-04 07:45:00,
2013-02-04 02:00:00,33.7,30.5,30.10,North,0,0.0,0.0,88,0.00,,---,0.00,VWS V13.00,2013-02-04 08:00:00,
2013-02-04 02:15:00,34.4,30.6,30.10,North,0,0.0,0.0,86,0.00,,---,0.00,VWS V13.00,2013-02-04 08:15:00,
2013-02-04 02:30:00,34.4,30.6,30.10,North,0,0.0,0.0,86,0.00,,---,0.00,VWS V13.00,2013-02-04 08:30:00,
2013-02-04 02:45:00,33.6,30.4,30.09,North,0,0.0,0.0,88,0.00,,---,0.00,VWS V13.00,2013-02-04 08:45:00,
2013-02-04 03:00:00,33.0,30.4,30.10,North,0,0.0,1.0,90,0.00,,---,0.00,VWS V13.00,2013-02-04 09:00:00,
2013-02-04 03:15:00,33.5,30.9,30.10,North,0,0.0,0.0,90,0.00,,---,0.00,VWS V13.00,2013-02-04 09:15:00,
2013-02-04 03:30:00,33.8,31.2,30.10,North,0,0.0,0.0,90,0.00,,---,0.00,VWS V13.00,2013-02-04 09:30:00,
2013-02-04 03:45:00,33.7,31.1,30.10,North,0,0.0,0.0,90,0.00,,---,0.00,VWS V13.00,2013-02-04 09:45:00,
2013-02-04 04:00:00,33.5,30.9,30.10,North,0,0.0,0.0,90,0.00,,---,0.00,VWS V13.00,2013-02-04 10:00:00,
2013-02-04 04:15:00,33.1,30.8,30.10,North,0,0.0,0.0,91,0.00,,---,0.00,VWS V13.00,2013-02-04 10:15:00,
2013-02-04 04:30:00,33.0,30.7,30.10,North,0,0.0,0.0,91,0.00,,---,0.00,VWS V13.00,2013-02-04 10:30:00,
2013-02-04 04:45:00,33.0,30.7,30.10,North,0,0.0,0.0,91,0.00,,---,0.00,VWS V13.00,2013-02-04 10:45:00,
2013-02-04 05:00:00,33.5,31.4,30.10,North,0,0.0,0.0,92,0.00,,---,0.00,VWS V13.00,2013-02-04 11:00:00,
2013-02-04 05:15:00,34.3,32.0,30.11,North,0,0.0,0.0,91,0.00,,---,0.00,VWS V13.00,2013-02-04 11:15:00,
2013-02-04 05:30:00,34.8,32.5,30.11,North,0,0.0,0.0,91,0.00,,---,0.00,VWS V13.00,2013-02-04 11:30:00,
2013-02-04 05:45:00,35.6,32.7,30.12,North,0,0.0,0.0,89,0.00,,---,0.00,VWS V13.00,2013-02-04 11:45:00,
2013-02-04 06:00:00,35.7,32.8,30.12,North,0,0.0,0.0,89,0.00,,---,0.00,VWS V13.00,2013-02-04 12:00:00,
2013-02-04 06:15:00,35.3,32.7,30.12,North,0,0.0,0.0,90,0.00,,---,0.00,VWS V13.00,2013-02-04 12:15:00,
2013-02-04 06:30:00,34.9,32.3,30.13,North,0,0.0,0.0,90,0.00,,---,0.00,VWS V13.00,2013-02-04 12:30:00,
2013-02-04 06:45:00,34.8,32.5,30.13,North,0,0.0,0.0,91,0.00,,---,0.00,VWS V13.00,2013-02-04 12:45:00,
2013-02-04 07:00:00,34.8,32.5,30.12,North,0,0.0,0.0,91,0.00,,---,0.00,VWS V13.00,2013-02-04 13:00:00,
2013-02-04 07:15:00,35.0,32.6,30.13,North,0,0.0,0.0,91,0.00,,---,0.00,VWS V13.00,2013-02-04 13:15:00,
2013-02-04 07:30:00,35.2,32.8,30.13,North,0,0.0,0.0,91,0.00,,---,0.00,VWS V13.00,2013-02-04 13:30:00,
2013-02-04 07:45:00,35.6,33.5,30.14,North,0,0.0,0.0,92,0.00,,---,0.00,VWS V13.00,2013-02-04 13:45:00,
2013-02-04 08:00:00,36.5,34.1,30.14,North,0,0.0,0.0,91,0.00,,---,0.00,VWS V13.00,2013-02-04 14:00:00,
2013-02-04 08:15:00,37.2,34.5,30.15,North,0,0.0,0.0,90,0.00,,---,0.00,VWS V13.00,2013-02-04 14:15:00,
2013-02-04 08:30:00,38.1,34.9,30.15,North,0,0.0,0.0,88,0.00,,---,0.00,VWS V13.00,2013-02-04 14:30:00,
2013-02-04 08:45:00,39.2,35.1,30.15,North,0,0.0,0.0,85,0.00,,---,0.00,VWS V13.00,2013-02-04 14:45:00,
2013-02-04 09:00:00,40.7,35.0,30.14,North,0,0.0,1.0,80,0.00,,---,0.00,VWS V13.00,2013-02-04 15:00:00,
2013-02-04 09:15:00,41.6,35.3,30.13,East,90,0.0,2.0,78,0.00,,---,0.00,VWS V13.00,2013-02-04 15:15:00,
2013-02-04 09:30:00,42.7,35.7,30.14,SSE,158,0.0,2.0,76,0.00,,---,0.00,VWS V13.00,2013-02-04 15:30:00,
2013-02-04 09:45:00,43.7,34.9,30.15,ESE,112,1.0,4.0,71,0.00,,---,0.00,VWS V13.00,2013-02-04 15:45:00,
2013-02-04 10:02:00,43.7,34.9,30.15,ESE,112,1.0,4.0,71,0.00,,---,0.00,VWS V13.00,2013-02-04 16:02:00,
2013-02-04 10:07:00,44.1,35.0,30.15,SSE,164,1.0,4.0,70,0.00,,---,0.00,VWS V13.00,2013-02-04 16:07:00,
2013-02-04 10:12:00,44.3,34.8,30.14,SE,142,4.0,4.0,69,0.00,,---,0.00,VWS V13.00,2013-02-04 16:12:00,
2013-02-04 10:17:00,44.3,35.2,30.14,South,174,1.0,4.0,70,0.00,,---,0.00,VWS V13.00,2013-02-04 16:17:00,
2013-02-04 10:22:00,44.5,35.0,30.13,South,182,1.0,3.0,69,0.00,,---,0.00,VWS V13.00,2013-02-04 16:22:00,
2013-02-04 10:27:00,44.8,35.3,30.12,SSE,150,3.0,3.0,69,0.00,,---,0.00,VWS V13.00,2013-02-04 16:27:00,
2013-02-04 10:32:00,45.0,35.5,30.12,SSE,150,1.0,3.0,69,0.00,,---,0.00,VWS V13.00,2013-02-04 16:32:00,
2013-02-04 10:37:00,45.4,35.1,30.12,SE,142,0.0,4.0,67,0.00,,---,0.00,VWS V13.00,2013-02-04 16:37:00,
2013-02-04 10:42:00,45.5,35.2,30.12,ESE,119,0.0,4.0,67,0.00,,---,0.00,VWS V13.00,2013-02-04 16:42:00,
2013-02-04 10:47:00,45.5,34.8,30.12,SE,132,1.0,4.0,66,0.00,,---,0.00,VWS V13.00,2013-02-04 16:47:00,
2013-02-04 10:52:00,45.5,34.8,30.12,ESE,123,0.0,3.0,66,0.00,,---,0.00,VWS V13.00,2013-02-04 16:52:00,
2013-02-04 10:57:00,45.7,35.0,30.11,SE,144,0.0,4.0,66,0.00,,---,0.00,VWS V13.00,2013-02-04 16:57:00,
2013-02-04 11:02:00,45.9,35.2,30.11,SE,143,0.0,4.0,66,0.00,,---,0.00,VWS V13.00,2013-02-04 17:02:00,
2013-02-04 11:07:00,46.2,35.5,30.11,South,178,3.0,3.0,66,0.00,,---,0.00,VWS V13.00,2013-02-04 17:07:00,
2013-02-04 11:12:00,46.5,35.4,30.12,SSW,210,4.0,4.0,65,0.00,,---,0.00,VWS V13.00,2013-02-04 17:12:00,
2013-02-04 11:17:00,46.5,35.0,30.11,SSE,150,1.0,5.0,64,0.00,,---,0.00,VWS V13.00,2013-02-04 17:17:00,
2013-02-04 11:22:00,46.8,35.3,30.11,SSW,192,1.0,4.0,64,0.00,,---,0.00,VWS V13.00,2013-02-04 17:22:00,
2013-02-04 11:27:00,46.9,35.4,30.11,South,190,1.0,4.0,64,0.00,,---,0.00,VWS V13.00,2013-02-04 17:27:00,
2013-02-04 11:32:00,47.0,34.7,30.10,SSE,148,1.0,4.0,62,0.00,,---,0.00,VWS V13.00,2013-02-04 17:32:00,
2013-02-04 11:37:00,47.2,35.3,30.10,SE,139,3.0,3.0,63,0.00,,---,0.00,VWS V13.00,2013-02-04 17:37:00,
2013-02-04 11:42:00,47.3,35.4,30.09,SE,127,2.0,4.0,63,0.00,,---,0.00,VWS V13.00,2013-02-04 17:42:00,
2013-02-04 11:47:00,47.5,35.5,30.08,South,182,0.0,5.0,63,0.00,,---,0.00,VWS V13.00,2013-02-04 17:47:00,
2013-02-04 11:52:00,47.7,35.3,30.08,ESE,118,3.0,4.0,62,0.00,,---,0.00,VWS V13.00,2013-02-04 17:52:00,
2013-02-04 11:57:00,47.9,35.9,30.08,SE,132,1.0,4.0,63,0.00,,---,0.00,VWS V13.00,2013-02-04 17:57:00,
2013-02-04 12:02:00,48.2,35.4,30.08,South,185,4.0,5.0,61,0.00,,---,0.00,VWS V13.00,2013-02-04 18:02:00,
2013-02-04 12:07:00,48.2,36.2,30.08,SE,146,0.0,6.0,63,0.00,,---,0.00,VWS V13.00,2013-02-04 18:07:00,
2013-02-04 12:12:00,48.5,36.1,30.08,SE,146,0.0,6.0,62,0.00,,---,0.00,VWS V13.00,2013-02-04 18:12:00,
2013-02-04 12:17:00,48.9,36.1,30.07,SSE,147,0.0,6.0,61,0.00,,---,0.00,VWS V13.00,2013-02-04 18:17:00,
2013-02-04 12:22:00,49.2,35.9,30.07,SSW,201,3.0,5.0,60,0.00,,---,0.00,VWS V13.00,2013-02-04 18:22:00,
2013-02-04 12:27:00,49.3,35.6,30.07,SSW,207,2.0,6.0,59,0.00,,---,0.00,VWS V13.00,2013-02-04 18:27:00,
2013-02-04 12:32:00,49.6,36.3,30.06,SSW,192,3.0,6.0,60,0.00,,---,0.00,VWS V13.00,2013-02-04 18:32:00,
2013-02-04 12:37:00,50.0,36.2,30.05,SSE,159,2.0,4.0,59,0.00,,---,0.00,VWS V13.00,2013-02-04 18:37:00,
2013-02-04 12:42:00,50.8,37.0,30.05,SE,126,2.0,5.0,59,0.00,,---,0.00,VWS V13.00,2013-02-04 18:42:00,
2013-02-04 12:47:00,51.1,36.4,30.05,SW,225,1.0,5.0,57,0.00,,---,0.00,VWS V13.00,2013-02-04 18:47:00,
2013-02-04 12:52:00,51.2,36.1,30.05,South,188,3.0,4.0,56,0.00,,---,0.00,VWS V13.00,2013-02-04 18:52:00,
2013-02-04 12:57:00,50.5,35.8,30.04,ESE,119,3.0,7.0,57,0.00,,---,0.00,VWS V13.00,2013-02-04 18:57:00,
2013-02-04 13:02:00,50.2,36.0,30.04,SE,136,2.0,7.0,58,0.00,,---,0.00,VWS V13.00,2013-02-04 19:02:00,
2013-02-04 13:07:00,50.2,36.0,30.04,South,174,0.0,5.0,58,0.00,,---,0.00,VWS V13.00,2013-02-04 19:07:00,
2013-02-04 13:12:00,50.5,36.3,30.03,SSW,195,0.0,5.0,58,0.00,,---,0.00,VWS V13.00,2013-02-04 19:12:00,
2013-02-04 13:17:00,50.5,36.3,30.03,SSW,202,2.0,5.0,58,0.00,,---,0.00,VWS V13.00,2013-02-04 19:17:00,
2013-02-04 13:22:00,50.7,35.6,30.03,SSW,202,2.0,4.0,56,0.00,,---,0.00,VWS V13.00,2013-02-04 19:22:00,
2013-02-04 13:27:00,50.8,35.7,30.02,South,183,1.0,4.0,56,0.00,,---,0.00,VWS V13.00,2013-02-04 19:27:00,
2013-02-04 13:32:00,50.9,35.8,30.02,South,183,4.0,4.0,56,0.00,,---,0.00,VWS V13.00,2013-02-04 19:32:00,
2013-02-04 13:37:00,50.9,35.8,30.02,SSW,211,1.0,4.0,56,0.00,,---,0.00,VWS V13.00,2013-02-04 19:37:00,
2013-02-04 13:42:00,51.2,36.1,30.02,SSW,194,2.0,5.0,56,0.00,,---,0.00,VWS V13.00,2013-02-04 19:42:00,
2013-02-04 13:47:00,51.4,36.7,30.02,South,190,2.0,5.0,57,0.00,,---,0.00,VWS V13.00,2013-02-04 19:47:00,
2013-02-04 13:52:00,51.3,36.2,30.01,SSW,193,4.0,6.0,56,0.00,,---,0.00,VWS V13.00,2013-02-04 19:52:00,
2013-02-04 13:57:00,51.4,36.7,30.01,SSE,154,1.0,6.0,57,0.00,,---,0.00,VWS V13.00,2013-02-04 19:57:00,
2013-02-04 14:02:00,51.5,36.8,30.01,SE,125,1.0,6.0,57,0.00,,---,0.00,VWS V13.00,2013-02-04 20:02:00,
2013-02-04 14:07:00,51.5,36.8,30.00,SSW,200,2.0,3.0,57,0.00,,---,0.00,VWS V13.00,2013-02-04 20:07:00,
2013-02-04 14:12:00,51.5,36.3,30.00,South,169,2.0,3.0,56,0.00,,---,0.00,VWS V13.00,2013-02-04 20:12:00,
2013-02-04 14:17:00,51.5,36.8,30.00,South,179,1.0,4.0,57,0.00,,---,0.00,VWS V13.00,2013-02-04 20:17:00,
2013-02-04 14:22:00,51.5,36.8,30.00,SSE,168,2.0,3.0,57,0.00,,---,0.00,VWS V13.00,2013-02-04 20:22:00,
2013-02-04 14:27:00,51.6,35.5,30.00,SE,134,4.0,4.0,54,0.00,,---,0.00,VWS V13.00,2013-02-04 20:27:00,
2013-02-04 14:32:00,51.7,35.6,30.00,SSW,200,5.0,6.0,54,0.00,,---,0.00,VWS V13.00,2013-02-04 20:32:00,
2013-02-04 14:37:00,51.8,35.7,30.00,SSW,194,0.0,5.0,54,0.00,,---,0.00,VWS V13.00,2013-02-04 20:37:00,
2013-02-04 14:42:00,51.9,36.3,30.00,South,175,2.0,5.0,55,0.00,,---,0.00,VWS V13.00,2013-02-04 20:42:00,
2013-02-04 14:47:00,52.2,36.5,30.00,SW,225,0.0,5.0,55,0.00,,---,0.00,VWS V13.00,2013-02-04 20:47:00,
2013-02-04 14:52:00,52.1,36.0,30.00,SSW,197,0.0,7.0,54,0.00,,---,0.00,VWS V13.00,2013-02-04 20:52:00,
2013-02-04 14:57:00,52.2,35.6,30.00,SSW,194,4.0,7.0,53,0.00,,---,0.00,VWS V13.00,2013-02-04 20:57:00,
2013-02-04 15:02:00,52.3,35.7,30.01,South,180,4.0,7.0,53,0.00,,---,0.00,VWS V13.00,2013-02-04 21:02:00,
2013-02-04 15:07:00,52.4,35.8,30.01,SSW,192,4.0,5.0,53,0.00,,---,0.00,VWS V13.00,2013-02-04 21:07:00,
2013-02-04 15:12:00,52.6,36.0,30.00,SE,145,0.0,5.0,53,0.00,,---,0.00,VWS V13.00,2013-02-04 21:12:00,
2013-02-04 15:17:00,52.8,36.2,30.00,South,180,3.0,5.0,53,0.00,,---,0.00,VWS V13.00,2013-02-04 21:17:00,
2013-02-04 15:22:00,52.9,35.8,30.00,SSW,196,3.0,4.0,52,0.00,,---,0.00,VWS V13.00,2013-02-04 21:22:00,
2013-02-04 15:27:00,52.8,35.7,30.00,SSW,194,4.0,7.0,52,0.00,,---,0.00,VWS V13.00,2013-02-04 21:27:00,
2013-02-04 15:32:00,52.6,35.5,30.00,SSW,202,3.0,7.0,52,0.00,,---,0.00,VWS V13.00,2013-02-04 21:32:00,
2013-02-04 15:37:00,52.6,36.0,30.00,SSW,192,3.0,6.0,53,0.00,,---,0.00,VWS V13.00,2013-02-04 21:37:00,
2013-02-04 15:42:00,52.6,36.0,30.00,South,191,0.0,6.0,53,0.00,,---,0.00,VWS V13.00,2013-02-04 21:42:00,
2013-02-04 15:47:00,52.5,36.3,30.00,SSW,193,3.0,6.0,54,0.00,,---,0.00,VWS V13.00,2013-02-04 21:47:00,
2013-02-04 15:52:00,52.4,36.3,30.01,SSE,155,1.0,3.0,54,0.00,,---,0.00,VWS V13.00,2013-02-04 21:52:00,
2013-02-04 15:57:00,52.5,36.8,30.00,SSE,156,3.0,4.0,55,0.00,,---,0.00,VWS V13.00,2013-02-04 21:57:00,
2013-02-04 16:02:00,52.6,36.9,30.00,South,190,3.0,5.0,55,0.00,,---,0.00,VWS V13.00,2013-02-04 22:02:00,
2013-02-04 16:07:00,52.6,36.5,30.00,SE,142,2.0,4.0,54,0.00,,---,0.00,VWS V13.00,2013-02-04 22:07:00,
2013-02-04 16:12:00,52.6,36.9,30.00,South,184,3.0,5.0,55,0.00,,---,0.00,VWS V13.00,2013-02-04 22:12:00,
2013-02-04 16:17:00,52.8,37.1,30.00,SSE,157,2.0,5.0,55,0.00,,---,0.00,VWS V13.00,2013-02-04 22:17:00,
2013-02-04 16:22:00,52.8,37.5,30.00,South,186,1.0,3.0,56,0.00,,---,0.00,VWS V13.00,2013-02-04 22:22:00,
2013-02-04 16:27:00,52.7,37.5,30.01,SSW,213,5.0,5.0,56,0.00,,---,0.00,VWS V13.00,2013-02-04 22:27:00,
2013-02-04 16:32:00,52.6,37.4,30.00,SSW,199,5.0,5.0,56,0.00,,---,0.00,VWS V13.00,2013-02-04 22:32:00,
2013-02-04 16:37:00,52.4,37.2,30.00,South,184,2.0,4.0,56,0.00,,---,0.00,VWS V13.00,2013-02-04 22:37:00,
2013-02-04 16:42:00,52.4,37.6,30.00,SSW,202,1.0,4.0,57,0.00,,---,0.00,VWS V13.00,2013-02-04 22:42:00,
2013-02-04 16:47:00,52.3,37.5,29.99,SSE,160,0.0,4.0,57,0.00,,---,0.00,VWS V13.00,2013-02-04 22:47:00,
2013-02-04 16:52:00,52.3,37.5,30.00,SE,145,2.0,2.0,57,0.00,,---,0.00,VWS V13.00,2013-02-04 22:52:00,
2013-02-04 16:57:00,52.2,37.4,30.00,South,180,0.0,3.0,57,0.00,,---,0.00,VWS V13.00,2013-02-04 22:57:00,
2013-02-04 17:02:00,52.1,37.3,30.00,SSW,196,0.0,3.0,57,0.00,,---,0.00,VWS V13.00,2013-02-04 23:02:00,
2013-02-04 17:07:00,52.0,37.2,30.00,SSW,196,0.0,1.0,57,0.00,,---,0.00,VWS V13.00,2013-02-04 23:07:00,
2013-02-04 17:12:00,51.9,37.2,30.00,SSW,195,0.0,2.0,57,0.00,,---,0.00,VWS V13.00,2013-02-04 23:12:00,
2013-02-04 17:17:00,51.9,37.2,30.00,SSW,196,0.0,2.0,57,0.00,,---,0.00,VWS V13.00,2013-02-04 23:17:00,
2013-02-04 17:22:00,51.8,37.1,30.00,SSW,196,0.0,0.0,57,0.00,,---,0.00,VWS V13.00,2013-02-04 23:22:00,
2013-02-04 17:27:00,51.7,37.8,30.00,SSW,195,0.0,0.0,59,0.00,,---,0.00,VWS V13.00,2013-02-04 23:27:00,
2013-02-04 17:32:00,51.5,37.7,30.00,SSW,195,0.0,0.0,59,0.00,,---,0.00,VWS V13.00,2013-02-04 23:32:00,
2013-02-04 17:37:00,51.3,37.9,30.01,SSW,196,0.0,0.0,60,0.00,,---,0.00,VWS V13.00,2013-02-04 23:37:00,
2013-02-04 17:42:00,51.1,38.1,30.01,SSW,196,0.0,0.0,61,0.00,,---,0.00,VWS V13.00,2013-02-04 23:42:00,
2013-02-04 17:47:00,50.9,38.4,30.01,SSW,196,0.0,0.0,62,0.00,,---,0.00,VWS V13.00,2013-02-04 23:47:00,
2013-02-04 17:52:00,50.6,38.1,30.01,SSW,196,0.0,0.0,62,0.00,,---,0.00,VWS V13.00,2013-02-04 23:52:00,
2013-02-04 17:57:00,50.5,37.6,30.01,SSW,195,0.0,0.0,61,0.00,,---,0.00,VWS V13.00,2013-02-04 23:57:00,
2013-02-04 18:02:00,50.4,38.3,30.01,SSW,195,0.0,0.0,63,0.00,,---,0.00,VWS V13.00,2013-02-05 00:02:00,
2013-02-04 18:07:00,50.2,37.7,30.02,SSW,196,0.0,0.0,62,0.00,,---,0.00,VWS V13.00,2013-02-05 00:07:00,
2013-02-04 18:12:00,50.1,38.0,30.01,SSW,196,0.0,0.0,63,0.00,,---,0.00,VWS V13.00,2013-02-05 00:12:00,
2013-02-04 18:17:00,50.0,37.5,30.02,SSW,196,0.0,0.0,62,0.00,,---,0.00,VWS V13.00,2013-02-05 00:17:00,
2013-02-04 18:22:00,50.0,38.3,30.01,SSW,195,0.0,0.0,64,0.00,,---,0.00,VWS V13.00,2013-02-05 00:22:00,
2013-02-04 18:27:00,49.9,37.8,30.01,SSW,195,0.0,0.0,63,0.00,,---,0.00,VWS V13.00,2013-02-05 00:27:00,
2013-02-04 18:32:00,49.7,38.0,30.01,SSW,196,0.0,0.0,64,0.00,,---,0.00,VWS V13.00,2013-02-05 00:32:00,
2013-02-04 18:37:00,49.5,38.2,30.01,SSW,195,0.0,0.0,65,0.00,,---,0.00,VWS V13.00,2013-02-05 00:37:00,
2013-02-04 18:42:00,49.4,38.1,30.01,SSW,196,0.0,0.0,65,0.00,,---,0.00,VWS V13.00,2013-02-05 00:42:00,
2013-02-04 18:47:00,49.2,38.0,30.01,SSW,195,0.0,0.0,65,0.00,,---,0.00,VWS V13.00,2013-02-05 00:47:00,
2013-02-04 18:52:00,49.1,37.9,30.01,SSW,196,0.0,0.0,65,0.00,,---,0.00,VWS V13.00,2013-02-05 00:52:00,
2013-02-04 18:57:00,48.9,38.1,30.01,SSW,195,0.0,0.0,66,0.00,,---,0.00,VWS V13.00,2013-02-05 00:57:00,
2013-02-04 19:02:00,48.7,38.6,30.01,SSW,196,0.0,0.0,68,0.00,,---,0.00,VWS V13.00,2013-02-05 01:02:00,
2013-02-04 19:07:00,48.6,38.5,30.01,SSW,196,0.0,0.0,68,0.00,,---,0.00,VWS V13.00,2013-02-05 01:07:00,
2013-02-04 19:12:00,48.4,38.7,30.01,SSW,195,0.0,0.0,69,0.00,,---,0.00,VWS V13.00,2013-02-05 01:12:00,
2013-02-04 19:17:00,48.3,38.6,30.01,SSW,196,0.0,0.0,69,0.00,,---,0.00,VWS V13.00,2013-02-05 01:17:00,
2013-02-04 19:22:00,48.1,38.8,30.01,SSW,195,0.0,0.0,70,0.00,,---,0.00,VWS V13.00,2013-02-05 01:22:00,
2013-02-04 19:27:00,47.9,38.6,30.01,SSW,196,0.0,0.0,70,0.00,,---,0.00,VWS V13.00,2013-02-05 01:27:00,
2013-02-04 19:32:00,47.8,38.5,30.01,SSW,196,0.0,0.0,70,0.00,,---,0.00,VWS V13.00,2013-02-05 01:32:00,
2013-02-04 19:37:00,47.6,38.7,30.01,SSW,195,0.0,0.0,71,0.00,,---,0.00,VWS V13.00,2013-02-05 01:37:00,
2013-02-04 19:42:00,47.4,38.8,30.01,SSW,195,0.0,0.0,72,0.00,,---,0.00,VWS V13.00,2013-02-05 01:42:00,
2013-02-04 19:47:00,47.3,39.1,30.01,SSW,196,0.0,0.0,73,0.00,,---,0.00,VWS V13.00,2013-02-05 01:47:00,
2013-02-04 19:52:00,47.3,38.7,30.01,SSW,196,0.0,0.0,72,0.00,,---,0.00,VWS V13.00,2013-02-05 01:52:00,
2013-02-04 19:57:00,47.2,39.0,30.01,SSW,195,0.0,0.0,73,0.00,,---,0.00,VWS V13.00,2013-02-05 01:57:00,
2013-02-04 20:02:00,47.1,38.5,30.01,SSW,196,0.0,0.0,72,0.00,,---,0.00,VWS V13.00,2013-02-05 02:02:00,
2013-02-04 20:07:00,47.0,38.8,30.00,SSW,195,0.0,0.0,73,0.00,,---,0.00,VWS V13.00,2013-02-05 02:07:00,
2013-02-04 20:12:00,47.0,38.8,30.00,SSW,196,0.0,0.0,73,0.00,,---,0.00,VWS V13.00,2013-02-05 02:12:00,
2013-02-04 20:17:00,46.9,38.4,30.00,SSW,196,0.0,0.0,72,0.00,,---,0.00,VWS V13.00,2013-02-05 02:17:00,
2013-02-04 20:22:00,46.8,38.3,30.00,SSW,195,0.0,0.0,72,0.00,,---,0.00,VWS V13.00,2013-02-05 02:22:00,
2013-02-04 20:27:00,46.6,38.1,30.00,SSW,196,0.0,0.0,72,0.00,,---,0.00,VWS V13.00,2013-02-05 02:27:00,
2013-02-04 20:32:00,46.5,38.3,29.99,SSW,196,0.0,0.0,73,0.00,,---,0.00,VWS V13.00,2013-02-05 02:32:00,
2013-02-04 20:37:00,46.4,38.2,29.99,SSW,196,0.0,0.0,73,0.00,,---,0.00,VWS V13.00,2013-02-05 02:37:00,
2013-02-04 20:42:00,46.3,38.1,29.99,SSW,196,0.0,0.0,73,0.00,,---,0.00,VWS V13.00,2013-02-05 02:42:00,
2013-02-04 20:47:00,46.3,38.1,29.99,SSW,196,0.0,0.0,73,0.00,,---,0.00,VWS V13.00,2013-02-05 02:47:00,
2013-02-04 20:52:00,46.4,37.5,29.99,SSW,195,0.0,0.0,71,0.00,,---,0.00,VWS V13.00,2013-02-05 02:52:00,
2013-02-04 20:57:00,46.6,38.1,29.99,SSW,195,0.0,0.0,72,0.00,,---,0.00,VWS V13.00,2013-02-05 02:57:00,
2013-02-04 21:02:00,46.6,38.1,29.99,SSW,196,0.0,0.0,72,0.00,,---,0.00,VWS V13.00,2013-02-05 03:02:00,
2013-02-04 21:07:00,46.5,37.6,29.98,SSW,196,0.0,0.0,71,0.00,,---,0.00,VWS V13.00,2013-02-05 03:07:00,
2013-02-04 21:12:00,46.5,37.6,29.99,SSW,195,0.0,0.0,71,0.00,,---,0.00,VWS V13.00,2013-02-05 03:12:00,
2013-02-04 21:17:00,46.4,37.5,29.98,SSW,195,0.0,0.0,71,0.00,,---,0.00,VWS V13.00,2013-02-05 03:17:00,
2013-02-04 21:22:00,46.4,37.5,29.99,SSW,196,0.0,0.0,71,0.00,,---,0.00,VWS V13.00,2013-02-05 03:22:00,
2013-02-04 21:27:00,46.4,37.9,29.98,SSW,196,0.0,0.0,72,0.00,,---,0.00,VWS V13.00,2013-02-05 03:27:00,
2013-02-04 21:32:00,46.4,37.9,29.98,SSW,196,0.0,0.0,72,0.00,,---,0.00,VWS V13.00,2013-02-05 03:32:00,
2013-02-04 21:37:00,46.4,37.9,29.98,SSW,195,0.0,0.0,72,0.00,,---,0.00,VWS V13.00,2013-02-05 03:37:00,
2013-02-04 21:42:00,46.5,38.0,29.98,SSW,196,0.0,0.0,72,0.00,,---,0.00,VWS V13.00,2013-02-05 03:42:00,
2013-02-04 21:47:00,46.5,38.0,29.99,SSW,196,0.0,0.0,72,0.00,,---,0.00,VWS V13.00,2013-02-05 03:47:00,
2013-02-04 21:52:00,46.6,37.7,29.98,SSW,195,0.0,0.0,71,0.00,,---,0.00,VWS V13.00,2013-02-05 03:52:00,
2013-02-04 21:57:00,46.8,37.9,29.98,SSW,195,0.0,0.0,71,0.00,,---,0.00,VWS V13.00,2013-02-05 03:57:00,
2013-02-04 22:02:00,46.9,38.4,29.98,SSW,196,0.0,0.0,72,0.00,,---,0.00,VWS V13.00,2013-02-05 04:02:00,
2013-02-04 22:07:00,46.9,38.0,29.98,SSW,196,0.0,0.0,71,0.00,,---,0.00,VWS V13.00,2013-02-05 04:07:00,
2013-02-04 22:12:00,46.9,38.0,29.98,SSW,196,0.0,0.0,71,0.00,,---,0.00,VWS V13.00,2013-02-05 04:12:00,
2013-02-04 22:17:00,46.9,37.6,29.98,SSW,196,0.0,0.0,70,0.00,,---,0.00,VWS V13.00,2013-02-05 04:17:00,
2013-02-04 22:22:00,46.9,38.0,29.98,SSW,195,0.0,0.0,71,0.00,,---,0.00,VWS V13.00,2013-02-05 04:22:00,
2013-02-04 22:27:00,47.0,38.1,29.98,SSW,196,0.0,0.0,71,0.00,,---,0.00,VWS V13.00,2013-02-05 04:27:00,
2013-02-04 22:32:00,47.2,37.9,29.98,SSW,196,0.0,0.0,70,0.00,,---,0.00,VWS V13.00,2013-02-05 04:32:00,
2013-02-04 22:37:00,47.7,38.0,29.98,SSW,196,0.0,2.0,69,0.00,,---,0.00,VWS V13.00,2013-02-05 04:37:00,
2013-02-04 22:42:00,48.3,37.9,29.98,SSE,149,0.0,2.0,67,0.00,,---,0.00,VWS V13.00,2013-02-05 04:42:00,
2013-02-04 22:47:00,48.5,38.1,29.97,SSE,149,0.0,2.0,67,0.00,,---,0.00,VWS V13.00,2013-02-05 04:47:00,
2013-02-04 22:52:00,48.6,38.2,29.97,SSE,150,0.0,2.0,67,0.00,,---,0.00,VWS V13.00,2013-02-05 04:52:00,
2013-02-04 22:57:00,48.7,38.2,29.98,South,178,0.0,3.0,67,0.00,,---,0.00,VWS V13.00,2013-02-05 04:57:00,
2013-02-04 23:00:00,48.7,38.2,29.98,South,178,1.0,3.0,67,0.00,,---,0.00,VWS V13.00,2013-02-05 05:00:00,
2013-02-04 23:05:00,48.7,38.2,29.97,ESE,107,0.0,0.0,67,0.00,,---,0.00,VWS V13.00,2013-02-05 05:05:00,
2013-02-04 23:10:00,48.8,38.3,29.97,SSE,152,3.0,3.0,67,0.00,,---,0.00,VWS V13.00,2013-02-05 05:10:00,
2013-02-04 23:15:00,48.8,38.7,29.98,SSE,152,3.0,3.0,68,0.00,,---,0.00,VWS V13.00,2013-02-05 05:15:00,
2013-02-04 23:20:00,48.9,38.4,29.97,SSE,152,0.0,1.0,67,0.00,,---,0.00,VWS V13.00,2013-02-05 05:20:00,
2013-02-04 23:25:00,49.0,38.5,29.98,SSE,152,0.0,1.0,67,0.00,,---,0.00,VWS V13.00,2013-02-05 05:25:00,
2013-02-04 23:30:00,48.9,38.4,29.97,SSE,152,0.0,1.0,67,0.00,,---,0.00,VWS V13.00,2013-02-05 05:30:00,
2013-02-04 23:35:00,48.8,38.7,29.97,SSE,152,0.0,0.0,68,0.00,,---,0.00,VWS V13.00,2013-02-05 05:35:00,
2013-02-04 23:40:00,48.6,38.9,29.97,SSE,152,0.0,0.0,69,0.00,,---,0.00,VWS V13.00,2013-02-05 05:40:00,
2013-02-04 23:45:00,48.4,38.7,29.97,SSE,152,0.0,0.0,69,0.00,,---,0.00,VWS V13.00,2013-02-05 05:45:00,
2013-02-04 23:50:00,48.2,38.9,29.97,SSE,152,0.0,0.0,70,0.00,,---,0.00,VWS V13.00,2013-02-05 05:50:00,
2013-02-04 23:55:00,48.0,39.1,29.96,SSE,152,0.0,0.0,71,0.00,,---,0.00,VWS V13.00,2013-02-05 05:55:00,